Regional Weather Roundup
Issued by NWS Midland/Odessa, TX

Home | Current Version | Previous Version | Text Only | Print | Product List | Glossary On
Versions: 1 2 3 4 5 6 7 8 9 10 11 12 13 14 15 16 17 18 19 20 21 22 23 24 25 26 27 28 29 30 31 32 33 34 35 36 37 38 39 40 41 42 43 44 45 46 47 48 49 50
000
ASUS44 KMAF 301310
RWRMAF
MIDLAND AREA WEATHER ROUNDUP
NATIONAL WEATHER SERVICE MIDLAND TX
800 AM CDT THU MAR 30 2017

...IN SOUTHWEST TEXAS AND SOUTHEAST NEW MEXICO...

CITY           SKY/WX    TMP DP  RH WIND       PRES   REMARKS
ALPINE         PTCLDY    46  29  51 SW9       30.11R
ANDREWS        FAIR      42  35  74 SW9       29.96S WCI  37
ARTESIA        CLEAR     37  34  87 S8        29.95R WCI  31
BIG SPRING     CLEAR     40  38  91 SE7       29.98S WCI  35
CARLSBAD       CLEAR     34  29  82 CALM      29.94S
DRYDEN           N/A     48  35  60 W8        29.99S
FORT STOCKTON  CLEAR     49  32  52 S13       29.99S
GUAD PASS      CLEAR     40  31  70 W12       30.05R WCI  33
HOBBS          CLEAR     36  32  87 S5        29.95F WCI  32
MARFA          CLEAR     28  22  78 N5        30.09R WCI  23
MIDLAND AIRPK  CLEAR     48  38  70 CALM      29.96F
MIDLAND INTL   CLEAR     46  38  73 SW8       29.96S
ODESSA           N/A     44  35  70 SW9       29.97S WCI  39
PECOS          CLEAR     36  28  72 CALM      29.98S
PRESIDIO       FAIR      49  32  51 N6        30.06S
SEMINOLE       CLEAR     37  33  84 SW9       29.95F WCI  31
SNYDER         CLEAR     40  37  89 SW7       29.93S WCI  36
WINK           CLEAR     36  31  82 E3        29.96S
$$
...OTHER STATIONS IN TEXAS...

CITY           SKY/WX    TMP DP  RH WIND       PRES   REMARKS
ABILENE        CLEAR     44  41  89 S7        29.91F
AMARILLO       CLEAR     37  35  92 W5        29.85F WCI  33
AUSTIN         PTCLDY    55  47  74 NW8       29.93R
BROWNSVILLE    CLEAR     66  52  60 N13       29.88R
CORPUS CHRISTI MOCLDY    61  47  59 NW18      29.90R
DALLAS FTW     PTCLDY    54  44  69 SW10      29.85R
DEL RIO        CLEAR     53  45  74 CALM      29.98S
EL PASO        PTCLDY    47  30  51 SE5       30.02R
HOUSTON INT    MOCLDY    61  49  64 NW10G20   29.85R
LUBBOCK        CLEAR     39  37  92 W7        29.89S WCI  34
SAN ANGELO     CLEAR     40  36  86 SW6       29.98R WCI  36
SAN ANTONIO    PTCLDY    53  43  68 W3        29.96R
WACO           PTCLDY    51  46  83 W9        29.91R
WICHITA FALLS  NOT AVBL
$$
...OTHER LOCATIONS IN NEW MEXICO...

CITY           SKY/WX    TMP DP  RH WIND       PRES   REMARKS
ALAMAGORDO       N/A    N/A N/A N/A MISG        N/A
ALBUQUERQUE    CLOUDY    39  36  89 S3        30.02S
CANNON AFB     CLEAR     39  39 100 W13       29.88F WCI  32
CLOVIS         CLEAR     39  34  81 W9        29.87F WCI  33
HOLLOMAN AFB   CLEAR     40  37  87 S7        30.06R WCI  36
ROSWELL        CLEAR     35  32  88 SW5         N/A  WCI  31
RUIDOSO        CLEAR     36  30  80 W7        30.03S WCI  30
SANTA FE       CLOUDY    31  31 100 N8        30.00R WCI  23
TRUTH OR CONSE CLEAR     38  29  70 W6        30.03R WCI  33
TUCUMCARI      CLEAR     38  36  92 W5        29.84S WCI  34
$$




USA.gov is the U.S. government's official web portal to all federal, state and local government web resources and services.